PROFILE

 METAR AND TAF INFORMATION
ADDS - METARS form results

(0823 UTC 19 August 2019)
http://aviationweather.gov/metar/data/
 
LEBL 190800Z 08015KT 9999 FEW015 SCT025 26/22 Q1015 NOSIG
LEBL 190730Z 07014KT 9999 FEW015 BKN025 26/22 Q1015 NOSIG
TAF LEBL 190500Z 1906/2006 07012KT 9999 FEW020 TX29/1912Z TN23/1906Z TEMPO 1907/1916 08015G26KT BECMG 1918/1920 08008KT 

 AIRPORT MAP

 RUNWAY INFORMATION
Runway 02 Runway length 8333 ft Runway width 148 ft
Runway elevation 7 ft Runway displaced threshold 131 ft Runway heading 19
Runway 20 Runway length 8333 ft Runway width 148 ft
Runway elevation 12 ft Runway displaced threshold 0 ft Runway heading 199
Runway 07L Runway length 11654 ft Runway width 148 ft
Runway elevation 8 ft Runway displaced threshold 295 ft Runway heading 66
Runway 25R Runway length 11654 ft Runway width 148 ft
Runway elevation 10 ft Runway displaced threshold 0 ft Runway heading 246
Runway 07R Runway length 8727 ft Runway width 197 ft
Runway elevation 8 ft Runway displaced threshold 0 ft Runway heading 66
Runway 25L Runway length 8727 ft Runway width 197 ft
Runway elevation 8 ft Runway displaced threshold 0 ft Runway heading 246

 AIRPORT FREQUENCIES
Type APP Name APP Frequency 119.1 MHZ
Type ATIS Name ATIS Frequency 118.65 MHZ
Type CLD Name CLNC DEL Frequency 121.8 MHZ
Type GND Name GND Frequency 121.65 MHZ
Type TWR Name TWR Frequency 118.1 MHZ

 AIRPORT NEAR NAVIGATION AIDS
Type VOR-DME Name Barcelona Frequency 116700 KHZ
Type VOR-DME Name El Prat Frequency 114300 KHZ
Type VOR-DME Name Sabadell Frequency 112000 KHZ
Type NDB Name Villanueva Frequency 380 KHZ